Find Starlink 3218

NORAD ID: 49725 Int'l Des: 2021-115 Owner: SPXS Country: US Constellation: starlink operational
LEOCIRCULAR

リアルタイム位置

3D地球を読み込み中...

Starlink 3218について

説明を読み込み中...

次回通過

Passes for default location (London). Set your location on the main map for personalized predictions.

高度履歴

Loading altitude history...

軌道要素

1 49725U 21115B 26126.37024659 .00000145 00000-0 27186-4 0 9998
2 49725 53.2182 250.2891 0001030 86.3357 273.7753 15.08833814244244
Epoch: May 6, 2026 • Age: 12 hours

現在のステータス

高度 541.2 km
速度 7.59 km/s
衛星直下点 -3.09°S, 106.74°W
打ち上げ日 Dec 2, 2021
運用期間 4.4 years
タイプ internet

技術仕様

分類 Payload
質量 290.00 kg
乾燥質量 270.00 kg
総質量 290.00 kg
長さ 0.20 m
直径 2.80 m
スパン 9.00 m
形状 Box + pan
製造者 SPXS
バスタイプ Starlink
フェーズステータス In Orbit
所有者/国 SPXS/US

Most Searched